TimeCET,TemperatureF,Dew PointF,Humidity,Sea Level PressureIn,VisibilityMPH,Wind Direction,Wind SpeedMPH,Gust SpeedMPH,PrecipitationIn,Events,Conditions,WindDirDegrees,DateUTC
12:20 AM,33.8,32.0,93,30.06,3.1,Calm,Calm,-,N/A,,Scattered Clouds,0,2012-11-17 23:20:00
12:50 AM,35.6,33.8,93,30.04,3.1,North,2.3,-,N/A,,Scattered Clouds,10,2012-11-17 23:50:00
1:20 AM,35.6,33.8,93,30.04,3.1,NNE,2.3,-,N/A,,Mostly Cloudy,20,2012-11-18 00:20:00
1:50 AM,35.6,33.8,93,30.04,3.1,North,3.5,-,N/A,,Mostly Cloudy,10,2012-11-18 00:50:00
2:20 AM,35.6,35.6,100,30.04,3.1,NNE,4.6,-,N/A,,Mostly Cloudy,20,2012-11-18 01:20:00
2:50 AM,35.6,35.6,100,30.04,3.1,NNE,3.5,-,N/A,,Mostly Cloudy,20,2012-11-18 01:50:00
3:20 AM,35.6,35.6,100,30.04,3.1,North,3.5,-,N/A,,Mostly Cloudy,350,2012-11-18 02:20:00
3:50 AM,35.6,35.6,100,30.01,3.1,North,3.5,-,N/A,,Mostly Cloudy,360,2012-11-18 02:50:00
4:20 AM,35.6,35.6,100,30.01,3.1,North,2.3,-,N/A,,Mostly Cloudy,360,2012-11-18 03:20:00
4:50 AM,33.8,33.8,100,30.01,3.1,North,2.3,-,N/A,,Mostly Cloudy,360,2012-11-18 03:50:00
5:20 AM,33.8,32.0,93,30.01,3.1,North,2.3,-,N/A,,Partly Cloudy,360,2012-11-18 04:20:00
5:50 AM,33.8,32.0,93,30.01,3.1,North,2.3,-,N/A,,Mist,360,2012-11-18 04:50:00
6:20 AM,32.0,32.0,100,30.01,3.1,North,2.3,-,N/A,,Mist,360,2012-11-18 05:20:00
6:50 AM,30.2,30.2,100,30.01,3.1,North,2.3,-,N/A,,Mist,350,2012-11-18 05:50:00
7:20 AM,35.6,33.8,93,30.04,2.2,North,3.5,-,N/A,Fog,Patches of Fog,350,2012-11-18 06:20:00
7:50 AM,33.8,33.8,100,30.04,1.9,North,4.6,-,N/A,Fog,Patches of Fog,350,2012-11-18 06:50:00
8:20 AM,33.8,33.8,100,30.04,2.2,North,2.3,-,N/A,Fog,Unknown,360,2012-11-18 07:20:00
8:50 AM,33.8,33.8,100,30.04,2.2,Variable,2.3,-,N/A,Fog,Unknown,0,2012-11-18 07:50:00
9:20 AM,37.4,37.4,100,30.04,-9999.0,NNE,4.6,-,N/A,Fog,Fog,20,2012-11-18 08:20:00
9:50 AM,41.0,39.2,93,30.04,2.5,Calm,Calm,-,N/A,Fog,Fog,0,2012-11-18 08:50:00
10:20 AM,42.8,41.0,93,30.04,2.5,Variable,1.2,-,N/A,Fog,Fog,0,2012-11-18 09:20:00
10:50 AM,44.6,39.2,81,30.04,2.5,Variable,2.3,-,N/A,Fog,Fog,0,2012-11-18 09:50:00
11:20 AM,44.6,41.0,87,30.04,3.1,Variable,2.3,-,N/A,,Mist,0,2012-11-18 10:20:00
11:50 AM,46.4,39.2,76,30.04,3.7,Variable,1.2,-,N/A,,Unknown,0,2012-11-18 10:50:00
12:20 PM,46.4,39.2,76,30.01,4.3,Variable,2.3,-,N/A,,Unknown,0,2012-11-18 11:20:00
12:50 PM,48.2,41.0,76,30.01,4.3,Variable,2.3,-,N/A,,Unknown,0,2012-11-18 11:50:00
1:20 PM,48.2,39.2,71,30.01,4.3,Variable,2.3,-,N/A,,Unknown,0,2012-11-18 12:20:00
1:50 PM,48.2,39.2,71,29.98,4.3,Variable,2.3,-,N/A,,Unknown,0,2012-11-18 12:50:00
2:20 PM,48.2,39.2,71,29.98,4.3,Variable,2.3,-,N/A,,Unknown,0,2012-11-18 13:20:00
2:50 PM,48.2,39.2,71,29.98,3.7,Variable,2.3,-,N/A,,Unknown,0,2012-11-18 13:50:00
3:20 PM,46.4,39.2,76,29.98,3.7,SSW,3.5,-,N/A,,Unknown,210,2012-11-18 14:20:00
3:50 PM,46.4,39.2,76,29.98,3.1,SSW,3.5,-,N/A,,Mist,200,2012-11-18 14:50:00
4:20 PM,44.6,39.2,81,29.98,3.1,SSW,2.3,-,N/A,,Mist,200,2012-11-18 15:20:00
4:50 PM,44.6,39.2,81,30.01,3.1,South,1.2,-,N/A,,Mist,170,2012-11-18 15:50:00
5:20 PM,42.8,37.4,81,30.01,3.1,SE,2.3,-,N/A,,Mist,130,2012-11-18 16:20:00
5:50 PM,42.8,37.4,81,30.01,3.1,Calm,Calm,-,N/A,,Mist,0,2012-11-18 16:50:00
6:20 PM,42.8,35.6,76,30.01,3.1,Calm,Calm,-,N/A,,Mist,0,2012-11-18 17:20:00
6:50 PM,39.2,37.4,93,30.01,3.1,Variable,1.2,-,N/A,,Mist,0,2012-11-18 17:50:00
7:20 PM,37.4,35.6,93,30.01,3.1,Variable,2.3,-,N/A,,Scattered Clouds,0,2012-11-18 18:20:00
7:50 PM,39.2,37.4,93,30.01,3.1,Calm,Calm,-,N/A,,Scattered Clouds,0,2012-11-18 18:50:00
8:20 PM,35.6,33.8,93,30.04,3.1,Variable,1.2,-,N/A,,Scattered Clouds,0,2012-11-18 19:20:00
8:50 PM,35.6,33.8,93,30.04,3.7,NNE,4.6,-,N/A,,Scattered Clouds,20,2012-11-18 19:50:00
9:20 PM,35.6,35.6,100,30.01,2.5,NNE,4.6,-,N/A,Fog,Fog,20,2012-11-18 20:20:00
9:50 PM,33.8,33.8,100,30.04,2.5,North,3.5,-,N/A,Fog,Shallow Fog,10,2012-11-18 20:50:00
10:20 PM,32.0,32.0,100,30.01,1.9,North,3.5,-,N/A,Fog,Patches of Fog,350,2012-11-18 21:20:00
10:50 PM,33.8,33.8,100,30.01,1.9,NNE,4.6,-,N/A,Fog,Patches of Fog,20,2012-11-18 21:50:00
11:20 PM,32.0,32.0,100,30.04,1.9,NNE,3.5,-,N/A,Fog,Patches of Fog,20,2012-11-18 22:20:00
11:50 PM,30.2,30.2,100,30.04,1.9,NNW,2.3,-,N/A,Fog,Patches of Fog,340,2012-11-18 22:50:00